Regional Weather Roundup
Issued by NWS Upton, NY

Current Version | Previous Version | Graphics & Text | Print | Product List | Glossary Off
Versions: 1 2 3 4 5 6 7 8 9 10 11 12 13 14 15 16 17 18 19 20 21 22 23 24 25 26 27 28 29 30 31 32 33 34 35 36 37 38 39 40 41 42 43 44 45 46 47 48 49 50

000
ASUS41 KOKX 201006
RWROKX

Regional Weather Roundup
National Weather Service New York NY
600 AM EDT SUN MAY 20 2018

Note: "FAIR" indicates few or no clouds below 12,000 feet with no
significant weather and/or obstructions to visibility.

NYZ071-072-176-178-NJZ106-104-201100-
New York City Metro Area

CITY           SKY/WX    TMP DP  RH WIND       PRES   REMARKS
Central Park   CLOUDY    62  61  96 CALM      29.99F FOG
Bronx Bot Gard   N/A     55  55 100 SE1       29.96F
Bronx Lehman C   N/A     57  57 100 S2          N/A
LaGuardia Arpt CLOUDY    59  59 100 CALM      29.96S FOG
Queens College   N/A     61  61 100 S7          N/A
Kennedy Intl   FOG       60  60 100 S3        29.98S VSB 1/8
Breezy Point     N/A     59 N/A N/A S5          N/A
Brooklyn Coll    N/A     61  59  94 SE2         N/A
Staten Island    N/A     61  61 100 N1          N/A
Newark/Liberty FOG       58  58 100 CALM      29.96F VSB 1
Teterboro      LGT RAIN  57  57 100 CALM      29.95F VSB 1/4
$$

NYZ177-179-078>081-201100-
Long Island New York

CITY           SKY/WX    TMP DP  RH WIND       PRES   REMARKS
Jones Beach      N/A     57 N/A N/A S9          N/A
Wantagh          N/A     57  57 100 SW7         N/A
Hempstead        N/A     61  61 100 S3        30.00S
Matinecock Pt    N/A     63 N/A N/A SW6         N/A
Farmingdale    FOG       59  59 100 SW8       29.98F VSB 3/4
MacArthur/ISP  FOG       59  59 100 SW10      29.98S VSB 1/8
Stony Brook      N/A    N/A N/A N/A S5          N/A
Shirley        CLOUDY    59  59 100 SW10      29.99F FOG
Mt Sinai Harb    N/A    N/A N/A N/A S9G15       N/A
Westhampton    FOG       58  56  93 SW10G20   30.00F VSB 3/4
East Hampton   CLOUDY    58  58  99 SW12G17   29.99S FOG
Southold         N/A     61  61 100 SW8         N/A
Montauk          N/A     59  59 100 SW9G16    30.00S
$$

NYZ052-065-067-201100-
Hudson Valley

CITY           SKY/WX    TMP DP  RH WIND       PRES   REMARKS
White Plains   FOG       59  59 100 VRB3      29.96S VSB 1/4
Larchmont Harb   N/A     54 N/A N/A SW2         N/A
Croton On Huds   N/A     55 N/A N/A MISG        N/A
Somers           N/A     55  55 100 SW2         N/A
Brewster         N/A     55  54  94 S2          N/A
Newburgh       CLOUDY    57  57 100 VRB5      29.96S FOG
Montgomery     CLOUDY    56  55  97 S3        29.93F FOG
Otisville        N/A     59  59 100 S3          N/A
Warwick          N/A     57  57 100 E1          N/A
Suffern          N/A     55  55 100 W1          N/A
Poughkeepsie   CLOUDY    57  55  93 SE5       29.93F FOG
Albany         DRIZZLE   60  57  89 S12       29.88S
$$

NJZ001-105-106-008-010-013-015-019>022-104-201100-
New Jersey

CITY           SKY/WX    TMP DP  RH WIND       PRES   REMARKS
Newark/Liberty FOG       58  58 100 CALM      29.96F VSB 1
Teterboro      LGT RAIN  57  57 100 CALM      29.95F VSB 1/4
Caldwell       LGT RAIN  57  57 100 CALM      29.97S VSB 1
Somerville     CLOUDY    58  58 100 CALM      29.95S FOG
Linden         CLOUDY    60  60 100 CALM      29.96S FOG
Perth Amboy      N/A     68 N/A N/A SW13        N/A
Sussex         LGT RAIN  58  58 100 S3        29.95S FOG
Andover          N/A     60  60 100 CALM      29.96S
Trenton        CLOUDY    70  68  93 SW8       29.97S
Millville      CLOUDY    69  67  93 SW7       30.01F
Atlantic City  MOCLDY    68  67  96 S10       30.01S
Wrightstown    FAIR      69  68  98 S14       29.96
Toms River     CLOUDY    69  68  96 SW12      30.00R
Belmar         CLOUDY    69  67  93 SW10      29.99F
$$

PAZ047>061-062-071-201100-
Eastern Pennsylvania

CITY           SKY/WX    TMP DP  RH WIND       PRES   REMARKS
Philadelphia   CLOUDY    70  67  90 S13       29.98S
Allentown      CLOUDY    60  57  89 CALM      29.96S
Scranton       CLOUDY    61  61 100 SW5       29.96R
$$

CTZ002-004>006-009-010-012-RIZ004-006-007-MAZ004-011-015-201100-
Southern New England

 In CT

CITY           SKY/WX    TMP DP  RH WIND       PRES   REMARKS
Bradley Intl   CLOUDY    58  58 100 S9        29.93F
Hartford       CLOUDY    61  60  97 S7        29.94F FOG
Danbury        CLOUDY    58  58 100 NW3       29.97R FOG
Wtrbury/Oxford FOG       58  58 100 S6        29.97F VSB<1/4
Norwalk Harbor   N/A     54 N/A N/A N3          N/A
Bridgeport     FOG       57  55  93 CALM      29.96F VSB 1/2
Meriden        CLOUDY    57  57 100 SE5       29.95F FOG
New Haven      FOG       59  58  96 CALM      29.96F VSB<1/4
Chester        FOG       61  61 100 SW8       29.96F VSB<1/4
Groton         FOG       58  58 100 SW7       29.97F VSB 1/4
Willimantic    CLOUDY    65  64  97 SW7       29.95F

 In RI

CITY           SKY/WX    TMP DP  RH WIND       PRES   REMARKS
Providence     CLOUDY    63  62  97 SW9       29.97R FOG
Block Island   LGT RAIN  56  56 100 SW17      30.00R VSB 1/4
Westerly       FOG       58  58 100 SW8       29.99S VSB 1/4

In MA

CITY           SKY/WX    TMP DP  RH WIND       PRES   REMARKS
Boston         MOCLDY    63  62  97 SW12      29.91F
Worcester      FOG       61  61 100 SW16      29.93F VSB 3/4
Westfield      CLOUDY    57  57 100 S10       29.91F FOG
Provincetown   CLOUDY    59  59 100 SW18G25   29.96F
Nantucket      FOG       57  57 100 S18       30.02F VSB 3/4
$$

ANZ330-335-338-340-345-350-353-355-201100-
Coastal Marine Observations


STATION/POSITION TIME  SKY/WX   TEMP    WIND        PRES    VSBY  WAVE
                                AIR SEA DIR/SP/G                  HT/PER
                 (UTC)          (F)     (DEG/KT/KT) (MB)    (MI)  (FT/S)
NY Harb Entrance 0950            56 53  190/ 16/ 17 1015.2          4/ 5
20 S Fire Island 0950            56 51  210/ 16/ 17 1015.7          4/ 6
23 SSW Montauk P 0950            56 50  210/ 17/ 21 1015.7          5/ 5
15 E Barnegat Li 0930               53                N/A           5/ 5
Hudson Canyon    0950            59 51  200/ 17/ 19 1017.1          4/ 9
Kings Point      0942            59 54  210/  6/  7 1015.5
Execution Rocks  NOT AVBL
Western LI Sound NOT AVBL
Central LI Sound 0930            55     200/  8/  8   N/A           1
Robbins Reef     0948            60      CALM  /  1 1015.1
$$


>>>>>>>>>>>>>>>>>>>>>>>>>>>> KEY <<<<<<<<<<<<<<<<<<<<<<<<<<<
>                                                          <
>     SKY/WX - Sky Condition/Present Weather               <
>     TMP    - Temperature in Fahrenheit                   <
>     DP     - Dew Point in Fahrenheit                     <
>     RH     - Relative Humidity in Percent                <
>     WIND   - Direction (from) and Speed in MPH           <
>     PRES   - Mean Sea Level Pressure (inches of Hg)      <
>     WCI    - Wind Chill Index                            <
>     VSB    - Visibility in Miles                         <
>     HX     - Heat Index                                  <
>     TC     - Temperature in Celsius                      <
>     VRB    - Varibale Wind Direction                     <
>                                                          <
>>>>>>>>>>>>>>>>>>>>>>>>>>>> KEY <<<<<<<<<<<<<<<<<<<<<<<<<<<



USA.gov is the U.S. government's official web portal to all federal, state and local government web resources and services.